CET,Max TemperatureF,Mean TemperatureF,Min TemperatureF,Max Dew PointF,MeanDew PointF,Min DewpointF,Max Humidity, Mean Humidity, Min Humidity, Max Sea Level PressureIn, Mean Sea Level PressureIn, Min Sea Level PressureIn, Max VisibilityMiles, Mean VisibilityMiles, Min VisibilityMiles, Max Wind SpeedMPH, Mean Wind SpeedMPH, Max Gust SpeedMPH,PrecipitationIn, CloudCover, Events, WindDirDegrees
2013-11-1,54,52,50,52,50,48,100,93,84,29.99,29.86,29.65,17,7,3,20,15,,0.01,5,Rain,195
2013-11-2,55,51,47,52,49,46,100,93,77,29.65,29.51,29.39,11,6,1,22,10,,0.02,6,Rain,183
2013-11-3,53,48,44,48,42,37,93,75,55,29.52,29.45,29.39,19,7,4,29,19,40,0.20,2,Rain-Thunderstorm,235
2013-11-4,53,48,43,52,44,37,100,87,60,29.39,29.16,28.91,9,6,2,23,14,25,0.20,5,Rain-Thunderstorm,304
2013-11-5,50,44,37,48,42,37,100,88,70,29.43,29.32,29.18,19,7,3,29,12,38,0.55,4,Rain,216
2013-11-6,59,52,45,54,46,41,100,82,66,29.55,29.47,29.33,14,6,2,29,16,41,0.04,4,Rain,248
2013-11-7,53,50,46,56,48,44,94,84,68,29.77,29.65,29.44,19,6,3,31,19,45,0.00,3,Rain,246
2013-11-8,51,45,39,48,44,37,100,93,81,29.80,29.70,29.53,17,5,2,12,7,,0.08,4,Rain,171
2013-11-9,51,46,41,46,42,39,100,81,58,29.76,29.64,29.53,19,6,4,25,16,34,0.28,4,Rain,244
2013-11-10,50,44,38,41,39,36,93,83,66,30.21,29.82,29.56,19,7,3,21,7,,0.28,2,Rain,304
2013-11-11,49,41,33,43,39,34,100,84,60,30.35,30.29,30.21,19,8,6,17,7,,0.00,3,Fog-Rain,181
2013-11-12,50,46,42,49,44,39,100,92,76,30.37,30.24,30.18,19,5,1,20,13,,0.08,5,Rain,241
2013-11-13,53,44,35,45,40,36,100,87,60,30.49,30.41,30.27,19,7,6,13,4,,0.00,1,,236
2013-11-14,50,44,39,46,43,39,100,89,76,30.27,30.09,29.98,11,6,3,15,11,,0.20,5,Rain,239
2013-11-15,53,44,34,46,41,34,100,90,66,30.49,30.37,30.18,16,7,2,12,5,,0.00,2,Fog,360
2013-11-16,47,40,34,46,41,36,100,98,92,30.49,30.42,30.33,6,2,0,11,5,,0.00,6,Fog,181
2013-11-17,50,46,43,46,44,43,100,94,83,30.35,30.24,30.06,6,3,1,7,4,,0.00,8,,119
2013-11-18,45,43,41,43,41,39,100,91,77,30.06,29.83,29.71,4,3,2,16,8,,0.01,7,Rain,180
2013-11-19,48,40,33,45,40,32,100,88,69,29.89,29.75,29.65,6,5,1,15,8,,0.08,4,Rain,314
2013-11-20,42,36,31,36,34,30,100,88,65,29.88,29.62,29.39,14,6,4,22,10,,0.03,3,Rain,185
2013-11-21,41,38,35,36,34,32,93,86,73,29.83,29.62,29.39,16,7,6,16,12,,0.00,3,,57
2013-11-22,43,37,31,39,37,30,100,87,79,30.06,29.95,29.83,17,7,6,16,8,,0.00,6,Rain,20
2013-11-23,45,41,37,39,37,32,93,84,66,30.20,30.13,30.06,19,7,6,13,7,,0.00,5,,4
2013-11-24,48,42,37,43,39,35,100,81,58,30.42,30.28,30.18,19,7,6,18,7,,0.01,5,Rain,353
2013-11-25,47,40,34,39,36,33,93,80,60,30.56,30.48,30.42,18,7,6,15,8,,0.00,3,Rain,346
2013-11-26,47,42,37,41,39,36,100,89,63,30.60,30.55,30.51,19,7,6,12,5,,0.00,5,Rain,321
2013-11-27,50,44,39,48,44,39,100,93,78,30.53,30.47,30.45,16,5,1,13,6,,0.00,7,Rain,232
2013-11-28,51,46,42,49,45,39,100,91,67,30.51,30.48,30.45,14,6,4,13,6,,0.00,6,,315
2013-11-29,49,45,41,45,40,36,93,80,66,30.47,30.14,29.92,16,7,2,29,13,38,0.04,5,Rain,274
2013-11-30,49,43,37,45,40,35,100,86,68,30.36,30.14,29.89,19,7,4,20,10,31,0.02,3,Rain,332